sat.trackr.live / text

‹ back to catalog

LEMUR-2-IRINA

NORAD 68480 · 2026-067BS

PAYLOAD ACTIVE UNKNOWN

§ Identity

Operator
Country
LUXE
Launch date
2026-03-30
Launch site
AFWTR
Launch vehicle
Mass (kg)
RCS (m²)

External: N2YO · Heavens-Above · Gunter

§ Orbital elements

Epoch: 2026-05-25T03:24:43.366176Z

Period
96.47 min
Inclination
97.7610°
Eccentricity
0.0004066
Mean motion
14.92760074 rev/d
Perigee alt
586.5 km
Apogee alt
592.2 km
Semi-major
6,967.5 km
B*
2.5106e-4
RAAN
103.8485°
Arg perigee
14.2560°
Mean anomaly
345.8774°
Rev number
829

§ Raw data

LEMUR-2-IRINA1 68480U 26067BS  26145.14216859  .00002538  00000+0  25106-3 0  99952 68480  97.7610 103.8485 0004066  14.2560 345.8774 14.92760074  8298

JSON: /api/v1/satellites/68480 · /tle

For live sub-satellite position, see the globe view (requires WebGL).

§ Visibility from observer

Set your observer location to see the next 7 days of passes ≥ 10°. The values pass through the URL so the page stays shareable.

No JS? Fill the form by hand. The geolocation button needs JavaScript.